Location: Arroyo Grande
(40.2671°N, 4.2512°W)
Time: 18:57:00
(UTC+00:00)

Cosmos 1844 Rocket - Pass Details

Date: 03 February 2023
Orbit: 826 x 843 km, 71.0° (Epoch: 22 March)

Event Time Altitude Azimuth Distance (km) Brightness Sun altitude
Rises 19:25:13 0° 333° (NNW) 3,371 6.1 -20.8°
Reaches altitude 10° 19:27:41 10° 330° (NNW) 2,433 5.4 -21.2°
Maximum altitude 19:33:09 60° 251° (WSW) 939 3.1 -22.3°
Drops below altitude 10° 19:38:36 10° 172° (S) 2,420 5.0 -23.3°
Sets 19:41:02 0° 169° (S) 3,351 5.7 -23.8°
